Theta_e
323 331 331 329 333 333 338 338 335 336 338 337 336 338 339 340 342 352 340 339 339 335 326 335 335 336 332 333 334 334 333 333 332 331 331 330 329 329 328 329 329 329 328 328 328 326 329 327 322
320 328 328 332 333 337 334 333 335 336 336 335 337 336 338 341 341 340 340 339 339 330 328 335 334 335 332 333 334 335 333 334 332 331 330 329 329 329 329 328 328 328 328 328 328 327 328 326 323
320 324 331 333 333 334 332 331 334 334 333 338 337 334 336 341 341 339 340 338 338 327 329 336 337 336 335 334 334 334 333 332 332 331 330 328 328 328 328 326 327 327 328 327 327 327 325 323 323
320 327 329 335 330 329 330 329 334 334 334 336 336 336 336 338 339 340 338 337 335 325 330 337 336 336 334 335 334 333 331 331 332 331 329 329 329 329 329 329 326 327 327 326 326 323 319 319 320
321 328 334 335 333 332 329 325 331 334 333 333 334 336 339 337 340 340 336 335 330 326 332 337 337 335 334 334 333 331 329 331 332 330 328 328 327 328 328 328 327 326 326 323 319 316 315 315 315
324 329 335 337 334 332 329 325 329 332 332 333 333 334 341 339 340 338 334 332 327 326 335 339 336 335 333 332 332 328 326 328 329 329 328 327 326 325 326 325 326 325 323 322 321 320 320 319 319
324 331 335 334 334 333 329 326 329 330 330 332 331 333 340 339 340 336 333 329 327 328 334 338 338 335 331 331 330 326 328 328 328 328 327 327 326 326 324 323 323 324 323 323 324 323 322 322 321
326 328 333 334 335 334 328 327 328 329 328 328 329 329 334 340 338 337 330 326 326 329 331 334 335 334 333 333 330 328 326 328 325 324 325 325 325 325 324 323 323 322 323 323 322 322 322 322 321
324 330 333 334 334 333 327 327 326 326 327 327 329 327 332 339 338 339 331 326 326 328 329 333 336 334 335 334 333 329 328 329 327 328 325 325 328 328 327 326 325 322 321 322 322 322 322 322 322
323 328 331 331 332 332 328 327 325 326 326 327 329 331 338 336 337 337 336 329 326 327 329 332 335 336 337 335 334 333 331 331 330 330 330 329 329 328 328 327 324 321 321 321 321 322 322 323 326
321 326 328 328 329 329 328 328 326 325 327 325 326 331 338 336 336 337 337 332 327 326 328 330 333 334 335 335 334 332 332 331 330 330 330 329 329 329 329 328 328 325 326 325 325 326 326 327 327
319 320 320 325 328 329 327 326 326 326 329 327 326 329 335 335 336 337 338 335 330 328 327 329 330 332 333 334 333 333 331 330 330 330 330 330 330 329 329 328 328 327 327 326 326 326 327 327 327
318 319 318 322 325 327 326 327 327 326 327 328 328 332 335 337 336 337 338 337 333 331 329 328 328 328 330 333 330 330 330 330 329 329 330 330 329 329 329 329 328 328 327 327 327 327 327 328 328
319 318 319 322 324 324 326 327 326 327 327 329 330 333 335 336 337 337 338 338 336 334 333 331 328 327 328 328 329 329 330 329 329 329 329 329 329 329 329 329 329 329 328 328 327 328 328 329 329
319 319 319 321 322 322 324 328 327 328 327 330 332 333 334 334 335 337 338 338 337 337 337 335 332 328 328 329 329 329 329 329 329 329 329 329 328 329 329 329 329 329 329 329 329 329 330 329 329
320 319 320 318 321 321 322 326 327 325 328 329 332 333 335 334 333 336 337 338 338 338 337 335 333 331 331 333 333 332 331 331 331 330 330 330 329 329 329 330 330 330 330 330 330 330 330 330 329
321 321 318 320 320 320 320 322 324 323 326 329 330 332 334 334 334 334 335 337 337 337 336 336 335 334 335 335 335 334 334 333 333 333 332 332 331 330 330 330 331 331 331 331 330 329 329 329 329
322 321 320 318 320 320 319 319 318 317 323 327 329 331 332 333 333 333 335 335 335 335 336 336 336 336 336 336 336 336 336 335 335 335 334 334 333 332 332 331 332 332 332 331 330 329 329 329 329
317 321 320 319 318 321 319 318 317 318 317 324 327 329 331 332 331 331 333 334 335 335 335 336 336 336 337 337 336 335 335 335 335 335 335 335 334 333 332 332 333 332 332 332 330 330 329 329 329
316 317 319 317 316 320 321 322 320 320 319 319 322 325 326 326 325 325 327 328 328 329 331 333 333 334 334 335 336 335 335 335 335 335 335 335 334 334 333 333 333 333 332 331 330 329 329 330 327
317 317 314 316 316 315 316 319 320 320 319 319 319 319 320 321 322 322 320 319 317 317 320 325 329 331 331 332 333 333 333 333 332 333 333 333 333 333 333 333 333 333 332 331 330 329 329 329 327
318 315 316 315 315 314 312 317 317 317 315 315 317 318 318 318 317 317 317 317 314 314 314 314 314 316 321 325 329 331 332 332 332 332 332 332 332 331 332 332 332 332 331 330 329 329 330 327 327
317 314 314 315 316 314 313 311 313 309 311 311 310 310 310 310 310 312 314 313 315 312 313 313 313 313 312 313 315 321 326 327 327 328 329 329 330 331 331 331 331 331 330 329 328 328 329 326 325
314 314 314 316 316 319 315 313 314 314 309 308 307 309 310 309 308 307 308 309 311 311 312 313 313 312 310 312 313 314 315 316 316 317 319 320 323 326 326 327 329 328 327 326 325 327 327 325 325
315 314 321 322 321 320 310 313 314 313 311 310 309 308 308 310 309 310 310 310 310 310 310 311 311 310 311 311 311 311 312 313 314 315 315 317 319 321 322 322 325 323 324 323 323 324 324 323 322
313 314 319 324 321 317 309 314 314 311 309 306 307 307 307 310 310 311 311 311 310 309 309 309 309 309 309 310 311 311 312 313 313 313 314 316 319 319 317 319 319 320 320 322 322 322 321 319 318
314 313 314 317 314 318 315 313 312 312 308 308 308 308 309 310 310 311 311 310 309 309 308 308 307 307 306 306 308 309 311 311 311 312 313 313 313 315 314 315 316 318 318 318 316 316 315 314 314
313 312 315 315 320 318 315 314 314 311 308 309 309 309 309 309 309 310 310 309 308 307 306 305 305 305 304 304 304 304 305 307 309 311 312 312 313 313 313 314 314 314 313 312 311 310 308 307 305
313 314 313 315 315 316 315 312 309 308 308 309 310 308 309 309 309 310 310 309 308 306 305 305 304 304 304 303 303 303 303 303 304 307 308 309 310 309 309 309 308 307 306 305 304 303 303 303 302
311 312 313 314 317 314 313 313 310 308 308 309 309 308 308 309 310 310 310 309 307 306 305 305 304 304 304 303 303 303 303 302 302 302 303 304 304 305 305 304 303 302 301 301 300 299 300 301 301
Wind_Speed
8 2 5 6 6 7 10 9 4 6 6 5 7 2 9 9 3 2 10 10 22 23 23 23 23 21 19 18 15 14 13 11 9 9 9 9 10 10 10 10 10 10 10 9 9 9 8 10 11
4 5 6 6 7 10 10 6 10 9 7 7 9 3 5 4 6 8 14 14 22 22 22 20 21 21 20 19 16 14 12 11 11 10 10 10 10 10 9 9 9 9 8 8 8 7 6 7 8
3 9 6 5 11 12 6 7 10 9 9 12 7 3 2 5 7 13 8 20 22 20 21 20 22 23 20 18 17 13 11 10 11 10 9 8 8 7 7 5 8 8 7 7 6 6 5 4 5
5 7 5 9 13 15 6 4 7 11 7 9 6 5 5 5 6 9 20 24 21 20 20 20 23 21 20 16 15 12 10 9 10 10 8 8 8 8 6 7 5 7 6 5 5 4 3 3 3
9 8 9 12 17 4 3 2 8 11 11 11 8 5 4 6 8 14 22 23 21 20 18 19 22 20 19 16 12 10 10 9 9 9 8 7 7 8 8 8 6 4 3 2 2 2 3 3 4
7 6 11 14 16 9 4 6 10 13 9 9 8 5 7 6 12 18 23 22 20 20 19 20 21 19 18 16 14 12 10 9 9 9 9 7 5 6 6 6 5 4 2 1 0 2 3 4 5
12 11 14 15 13 8 8 8 11 13 10 10 3 8 6 9 13 19 21 21 20 19 20 18 17 16 16 14 13 11 10 9 9 10 10 8 7 5 5 5 4 3 3 3 3 5 6 6 6
8 10 18 14 11 11 7 11 8 11 10 4 3 5 7 15 17 19 21 20 19 18 19 18 17 15 14 13 13 11 10 7 6 8 9 9 8 8 7 8 6 6 6 6 6 7 7 8 9
6 10 14 17 15 9 9 12 7 2 3 7 6 2 6 21 20 20 22 21 19 18 19 17 17 17 15 14 13 12 12 12 10 8 8 8 6 7 7 7 9 9 8 8 9 9 9 10 11
10 12 18 13 10 9 12 13 11 8 10 9 8 6 16 18 21 22 24 23 22 21 20 19 16 15 15 15 14 12 11 9 10 9 9 8 8 7 8 9 10 10 10 10 10 10 10 11 7
9 14 16 4 6 3 10 12 10 11 11 10 13 13 15 17 19 20 23 23 23 21 20 19 16 14 15 13 13 14 12 11 11 12 11 10 9 9 8 8 8 8 9 9 9 8 8 7 8
9 14 4 1 2 3 8 9 11 12 4 1 6 16 15 16 16 21 21 21 22 22 21 20 18 17 17 14 14 13 13 12 12 12 13 12 10 10 10 9 8 9 8 9 9 9 9 9 10
14 11 7 2 3 3 1 9 10 13 7 4 7 14 15 16 18 19 20 18 20 20 20 19 19 18 17 18 15 14 13 13 12 12 12 13 12 11 10 10 10 9 9 9 9 10 10 9 9
1 13 7 5 5 2 3 4 2 11 10 7 10 12 13 15 19 18 20 19 19 19 19 19 19 18 17 17 16 14 14 14 13 13 14 14 14 13 12 11 11 11 10 10 10 10 10 10 10
6 9 8 8 8 4 2 6 9 4 9 11 10 11 11 14 19 21 21 20 20 19 18 19 19 18 18 17 16 15 14 13 14 14 15 15 15 15 13 12 11 11 10 10 10 10 11 11 11
11 8 9 12 9 5 6 11 13 6 9 12 11 11 12 13 17 18 20 20 19 18 18 18 18 19 19 17 16 15 15 14 14 14 14 15 16 16 14 13 12 11 10 10 10 11 12 13 13
10 11 16 7 8 4 10 9 9 5 7 11 11 10 11 12 14 16 17 18 18 18 17 18 18 18 19 18 16 15 14 15 14 14 15 15 16 16 16 15 14 12 11 11 12 12 13 14 15
9 12 8 11 5 6 10 13 5 5 7 10 10 10 11 11 14 16 16 16 16 16 16 17 17 18 17 16 17 17 16 17 16 17 17 16 16 16 17 17 16 13 13 13 12 13 13 14 16
11 4 7 5 6 3 12 14 14 8 6 9 10 11 10 10 10 14 15 15 15 15 16 16 17 17 17 18 16 16 17 16 18 18 17 17 17 16 17 17 15 15 15 14 13 12 13 13 13
9 4 1 2 4 2 4 13 13 13 10 10 11 11 11 9 9 10 12 13 13 14 15 16 16 16 17 17 16 15 12 15 16 14 16 16 17 17 18 17 16 15 14 14 13 13 13 11 14
8 7 6 4 2 1 5 10 14 12 13 12 10 10 8 8 9 9 10 12 10 9 8 10 12 13 13 14 13 11 11 10 9 10 13 13 14 16 18 18 17 16 15 14 13 13 13 11 11
3 9 8 5 5 2 2 4 3 8 7 9 11 11 11 9 7 6 7 11 11 9 7 6 7 8 12 12 11 13 13 13 12 12 10 10 10 12 14 15 15 15 14 12 13 13 14 14 11
6 7 7 5 4 5 6 4 3 3 3 7 2 3 5 5 6 8 9 8 8 8 7 7 6 6 6 6 7 8 11 11 9 9 9 9 10 10 11 11 12 12 12 11 11 11 10 10 11
7 7 2 6 3 5 10 5 7 2 4 5 4 5 4 4 4 3 2 3 6 5 6 6 6 5 5 4 4 5 5 6 7 7 7 8 7 7 9 9 8 9 9 10 9 8 7 6 4
8 8 1 3 3 5 2 4 11 10 6 4 7 6 6 2 1 0 2 5 6 6 5 5 6 4 3 3 2 2 3 4 6 6 6 5 6 5 5 5 5 8 9 8 8 8 8 7 3
9 8 3 2 3 1 2 6 2 2 3 5 6 7 6 2 1 1 2 3 5 6 6 6 6 6 5 4 3 2 1 1 1 2 3 3 3 3 5 4 5 5 5 5 6 8 7 6 6
4 6 6 3 1 3 5 6 6 6 4 2 3 5 5 2 2 2 1 1 3 4 5 5 6 5 5 5 4 3 2 2 2 3 2 2 1 2 2 3 3 4 4 4 4 4 5 4 4
3 9 4 3 3 4 6 5 8 3 6 8 10 8 4 2 2 1 2 2 2 3 4 4 4 5 4 4 3 2 2 2 2 2 3 2 2 1 2 2 2 2 3 3 3 4 4 4 3
3 3 2 5 3 3 3 3 6 8 6 8 10 7 5 3 2 2 2 3 4 3 3 4 5 5 4 4 3 2 1 2 2 2 1 1 2 2 1 1 1 1 1 1 2 2 3 4 4
5 8 10 4 5 5 3 5 8 6 5 7 12 8 5 4 4 3 4 5 5 4 5 6 6 6 5 4 3 2 2 2 2 2 1 2 1 1 1 1 1 1 2 2 3 3 4 4 4
Wind_Direction
337 176 195 224 235 231 238 217 234 172 174 135 158 169 189 342 239 28 143 148 151 151 157 161 165 161 160 155 156 147 141 135 129 118 112 109 106 103 101 100 100 99 97 96 94 84 70 64 65
294 200 227 264 247 234 235 157 202 172 132 160 136 197 218 108 69 118 141 151 154 151 157 162 167 170 163 161 160 151 144 136 127 121 120 115 112 106 104 107 106 106 103 100 98 91 77 69 63
259 224 261 226 238 248 278 157 196 120 147 159 164 281 72 80 94 147 137 154 153 152 156 165 161 164 166 165 160 153 150 142 135 130 129 127 126 119 109 108 110 109 105 102 102 95 88 74 56
226 203 241 247 239 244 285 190 139 154 158 192 189 185 110 54 133 151 148 151 153 153 157 170 167 168 164 165 161 157 154 147 144 142 141 139 142 114 139 136 99 117 110 103 94 84 69 51 26
227 257 245 225 248 237 233 258 180 185 168 184 189 154 101 121 120 139 149 154 155 156 159 167 170 171 164 164 166 168 160 160 156 154 154 154 159 153 154 143 128 100 107 111 94 57 29 9 354
239 251 233 237 228 202 205 193 199 198 171 158 196 160 110 124 142 150 154 157 158 158 159 163 170 171 166 168 175 178 173 176 172 170 170 173 181 176 182 193 201 218 231 158 294 348 345 328 324
241 224 236 242 249 173 209 189 198 196 185 184 303 208 102 153 152 156 159 158 160 160 161 164 169 175 174 177 185 180 170 175 192 184 186 194 196 209 211 211 218 230 245 284 296 300 307 316 316
258 251 244 242 234 238 149 177 203 196 198 64 195 219 197 158 157 161 160 161 163 163 167 168 171 175 179 187 191 183 174 184 187 188 197 203 213 225 227 229 244 247 252 265 277 289 293 298 298
253 233 231 222 222 221 153 185 190 101 160 200 178 337 50 140 151 163 164 164 167 170 172 172 176 182 185 188 194 188 185 186 195 216 206 208 213 227 236 237 241 254 253 262 269 276 285 293 301
228 223 228 228 219 238 180 198 164 182 195 193 185 113 126 150 158 168 173 172 173 176 178 181 183 185 186 187 202 196 201 204 208 212 217 213 223 226 222 232 254 253 258 265 274 279 286 292 296
225 236 228 228 270 264 188 202 176 206 193 198 198 170 150 164 172 176 181 179 179 179 181 186 187 187 191 193 198 199 205 213 216 216 216 222 228 236 246 244 260 264 269 273 281 286 287 273 277
266 235 276 266 182 184 201 204 200 214 100 261 167 154 163 177 181 183 189 182 182 184 186 189 191 192 195 191 202 207 211 215 216 219 220 223 229 236 238 243 248 253 253 259 262 267 269 274 277
262 260 230 207 202 237 29 223 213 212 145 133 144 146 171 178 186 194 192 189 188 190 192 193 193 197 199 202 209 213 217 220 222 223 223 222 228 233 237 242 246 251 254 256 260 263 267 271 275
56 261 226 194 178 169 233 208 254 212 172 164 162 170 174 185 184 189 196 194 194 195 197 197 199 200 201 206 210 214 219 222 224 225 226 225 226 233 238 243 247 250 252 256 260 265 270 275 278
301 262 222 208 188 162 225 215 228 140 180 178 175 175 177 185 186 192 199 197 197 199 199 200 201 203 205 209 214 219 223 223 226 228 230 229 229 232 237 244 247 251 252 254 258 263 265 267 270
213 267 215 187 186 152 193 229 203 161 197 200 183 178 178 187 190 195 200 199 197 197 199 200 202 205 209 212 216 220 224 226 229 232 233 233 231 233 236 242 247 248 246 250 257 263 268 267 270
198 202 228 156 209 155 201 217 128 168 216 213 201 189 184 182 189 194 193 200 198 199 199 202 204 208 211 216 218 223 225 226 231 232 233 233 232 231 231 235 242 244 246 250 256 263 267 273 277
200 220 199 214 144 226 207 235 128 200 237 218 209 202 191 196 192 194 193 195 202 205 207 208 210 213 214 217 221 227 230 231 234 234 234 235 233 233 231 235 239 243 248 252 258 264 269 274 281
320 271 221 33 41 283 230 245 244 180 227 235 223 210 204 198 194 192 199 200 204 211 212 216 216 217 215 214 219 224 227 233 236 236 238 238 236 235 233 235 240 241 242 249 257 264 268 272 287
292 340 151 109 32 287 263 260 248 246 239 243 236 223 218 200 187 191 199 205 211 217 220 221 221 220 218 220 222 222 232 238 240 240 239 239 237 236 235 235 237 238 241 245 252 253 252 257 273
278 303 36 26 16 202 301 268 243 234 241 239 240 256 256 232 212 191 191 198 200 206 209 215 218 219 219 220 222 225 237 243 244 241 242 243 239 236 235 235 235 237 239 241 245 248 238 249 275
273 347 323 306 327 276 327 276 210 219 231 227 239 240 244 232 225 248 203 206 192 180 173 177 189 196 210 212 225 230 238 246 249 248 250 247 243 242 239 239 240 241 240 238 245 248 251 256 257
219 335 13 348 294 305 227 257 253 127 245 244 246 322 318 327 312 251 231 221 192 174 177 171 168 178 195 190 207 228 240 255 268 268 264 263 257 250 246 242 241 240 239 241 246 252 267 256 265
151 156 338 331 311 262 239 238 260 245 24 17 27 30 12 341 316 277 325 194 176 174 175 168 168 172 201 195 219 228 247 261 271 273 270 268 258 249 245 236 237 237 237 241 247 249 257 261 247
225 135 73 200 200 254 78 228 260 322 352 334 305 314 333 8 12 67 173 176 167 169 159 157 163 153 162 168 191 230 252 269 272 273 270 272 264 248 245 234 234 223 223 229 242 247 246 244 207
203 157 161 246 221 256 135 236 147 356 332 312 291 291 309 293 117 142 135 144 148 145 145 145 147 143 140 138 133 122 104 77 355 316 271 263 267 221 243 221 219 215 212 214 237 240 230 242 250
165 199 112 77 85 285 235 250 260 264 99 84 0 340 310 237 185 154 114 130 140 143 142 147 143 137 131 126 117 113 97 76 57 35 58 76 196 181 164 177 185 185 206 208 210 231 243 234 241
266 137 97 95 249 238 248 267 256 176 45 23 6 346 327 275 272 186 163 168 175 161 155 152 150 149 145 134 128 108 79 64 42 55 64 87 88 126 147 161 190 201 214 211 215 223 212 186 160
149 185 177 154 234 288 298 264 73 65 32 356 352 346 335 304 271 244 199 181 202 189 178 176 170 166 158 150 143 130 102 72 67 60 63 76 90 112 142 177 205 233 248 210 185 174 151 146 135
310 226 194 212 201 236 336 266 83 85 68 26 7 4 355 321 294 248 204 189 191 202 204 202 187 177 175 172 160 143 122 88 70 54 41 73 67 98 144 152 159 145 135 121 117 115 112 114 117